AAL1432 MDPP-TNCM

Flight info

Callsign AAL1432
Flight time 1h 3m
Altitude 35000
Route POKEG3C POKEG DCT PIXAR DCT KATOK M348 MEEGL DCT BQN RTE2 SJU RTE6 STT B520 PJM
Aircraft A321/M-SDE3FGHIRWY/LB1

Departure

Time 2026-04-24 19:49
Airport Gregorio Luperon International Airport (MDPP)

Arrival

Time 2026-04-24 20:53
Airport Princess Juliana International Airport (TNCM)
Time Latitude Longitude Altitude Speed Heading
2026-04-24 19:23 19.75540 -70.56534 34 ft 0 kts 107°
2026-04-24 19:39 19.75543 -70.56544 34 ft 4 kts 105°
2026-04-24 19:40 19.75547 -70.56572 34 ft 4 kts 81°
2026-04-24 19:40 19.75541 -70.56594 30 ft 4 kts 42°
2026-04-24 19:40 19.75519 -70.56603 34 ft 4 kts 356°
2026-04-24 19:40 19.75504 -70.56601 31 ft 0 kts 343°
2026-04-24 19:43 19.75521 -70.56607 31 ft 5 kts 343°
2026-04-24 19:43 19.75558 -70.56619 33 ft 6 kts 343°
2026-04-24 19:44 19.75603 -70.56634 35 ft 7 kts 340°
2026-04-24 19:44 19.75631 -70.56674 35 ft 7 kts 270°
2026-04-24 19:44 19.75614 -70.56729 35 ft 8 kts 252°
2026-04-24 19:44 19.75596 -70.56792 35 ft 9 kts 253°
2026-04-24 19:45 19.75575 -70.56862 35 ft 11 kts 252°
2026-04-24 19:45 19.75552 -70.56940 34 ft 12 kts 252°
2026-04-24 19:45 19.75535 -70.57026 34 ft 12 kts 275°
2026-04-24 19:45 19.75584 -70.57102 34 ft 13 kts 314°
2026-04-24 19:46 19.75650 -70.57175 34 ft 14 kts 314°
2026-04-24 19:46 19.75698 -70.57269 33 ft 15 kts 272°
2026-04-24 19:46 19.75675 -70.57379 33 ft 16 kts 253°
2026-04-24 19:46 19.75639 -70.57509 32 ft 22 kts 253°
2026-04-24 19:47 19.75592 -70.57670 33 ft 23 kts 253°
2026-04-24 19:47 19.75540 -70.57852 36 ft 30 kts 253°
2026-04-24 19:47 19.75478 -70.58065 36 ft 30 kts 252°
2026-04-24 19:47 19.75414 -70.58264 36 ft 24 kts 240°
2026-04-24 19:48 19.75354 -70.58373 35 ft 12 kts 271°
2026-04-24 19:48 19.75386 -70.58390 36 ft 4 kts 53°
2026-04-24 19:48 19.75419 -70.58270 36 ft 45 kts 73°
2026-04-24 19:49 19.75866 -70.56739 45 ft 160 kts 77°
2026-04-24 19:49 19.76525 -70.54491 1142 ft 161 kts 73°
2026-04-24 19:50 19.78151 -70.50633 1536 ft 232 kts 45°
2026-04-24 19:50 19.79372 -70.49360 1882 ft 256 kts 44°
2026-04-24 19:51 19.81941 -70.46580 3528 ft 270 kts 44°
2026-04-24 19:51 19.83256 -70.45101 4651 ft 279 kts 46°
2026-04-24 19:52 19.85937 -70.42030 6638 ft 289 kts 46°
2026-04-24 19:52 19.87309 -70.40450 7484 ft 293 kts 46°
2026-04-24 19:52 19.88701 -70.38845 8290 ft 296 kts 46°
2026-04-24 19:52 19.90105 -70.37226 8977 ft 299 kts 46°
2026-04-24 19:53 19.91523 -70.35589 9616 ft 302 kts 46°
2026-04-24 19:53 19.92936 -70.33955 10198 ft 307 kts 46°
2026-04-24 19:53 19.96031 -70.30382 10484 ft 349 kts 46°
2026-04-24 19:54 19.97723 -70.28427 10599 ft 369 kts 46°
2026-04-24 19:54 19.99498 -70.26372 10809 ft 383 kts 46°
2026-04-24 19:54 20.01317 -70.24263 11290 ft 389 kts 47°
2026-04-24 19:54 20.03114 -70.22086 11805 ft 394 kts 53°
2026-04-24 19:55 20.04046 -70.20421 12129 ft 397 kts 65°
2026-04-24 19:55 20.04871 -70.16608 12842 ft 400 kts 91°
2026-04-24 19:55 20.04470 -70.13679 13350 ft 401 kts 110°
2026-04-24 19:55 20.03223 -70.11040 13866 ft 401 kts 127°
2026-04-24 19:56 20.01565 -70.08653 14348 ft 403 kts 129°
2026-04-24 19:56 19.99884 -70.06249 14840 ft 407 kts 129°
2026-04-24 19:56 19.98190 -70.03826 15318 ft 410 kts 129°
2026-04-24 19:56 19.96479 -70.01372 15805 ft 414 kts 129°
2026-04-24 19:57 19.94763 -69.98904 16317 ft 416 kts 129°
2026-04-24 19:57 19.93036 -69.96417 16799 ft 420 kts 129°
2026-04-24 19:57 19.91293 -69.93907 17284 ft 424 kts 129°
2026-04-24 19:57 19.89536 -69.91378 17784 ft 428 kts 129°
2026-04-24 19:58 19.87763 -69.88828 18247 ft 431 kts 129°
2026-04-24 19:58 19.85974 -69.86255 18643 ft 434 kts 129°
2026-04-24 19:58 19.84178 -69.83672 19033 ft 437 kts 129°
2026-04-24 19:58 19.82361 -69.81066 19426 ft 439 kts 130°
2026-04-24 19:59 19.80536 -69.78453 19811 ft 442 kts 130°
2026-04-24 19:59 19.78704 -69.75829 20193 ft 444 kts 130°
2026-04-24 19:59 19.76852 -69.73174 20580 ft 447 kts 130°
2026-04-24 19:59 19.75022 -69.70553 20941 ft 449 kts 130°
2026-04-24 20:00 19.73132 -69.67847 21315 ft 451 kts 130°
2026-04-24 20:00 19.71279 -69.65196 21671 ft 454 kts 130°
2026-04-24 20:00 19.69395 -69.62505 22019 ft 456 kts 130°
2026-04-24 20:00 19.67494 -69.59791 22358 ft 458 kts 130°
2026-04-24 20:01 19.65591 -69.57069 22704 ft 460 kts 130°
2026-04-24 20:01 19.63681 -69.54340 23046 ft 463 kts 130°
2026-04-24 20:01 19.61753 -69.51583 23427 ft 466 kts 131°
2026-04-24 20:01 19.59818 -69.48825 23728 ft 468 kts 131°
2026-04-24 20:02 19.58528 -69.46990 23910 ft 470 kts 131°
2026-04-24 20:02 19.55911 -69.43267 24312 ft 472 kts 131°
2026-04-24 20:02 19.53942 -69.40462 24581 ft 474 kts 131°
2026-04-24 20:02 19.51967 -69.37647 24847 ft 476 kts 131°
2026-04-24 20:03 19.49985 -69.34826 25117 ft 478 kts 131°
2026-04-24 20:03 19.47993 -69.31988 25375 ft 480 kts 131°
2026-04-24 20:03 19.45994 -69.29140 25630 ft 483 kts 131°
2026-04-24 20:03 19.43988 -69.26278 25901 ft 485 kts 131°
2026-04-24 20:04 19.41978 -69.23410 26148 ft 487 kts 131°
2026-04-24 20:04 19.39973 -69.20558 26408 ft 489 kts 131°
2026-04-24 20:04 19.37927 -69.17661 26651 ft 491 kts 131°
2026-04-24 20:04 19.35873 -69.14759 26910 ft 493 kts 131°
2026-04-24 20:05 19.33808 -69.11839 27159 ft 496 kts 131°
2026-04-24 20:05 19.32437 -69.09896 27327 ft 497 kts 131°
2026-04-24 20:05 19.30370 -69.06965 27581 ft 498 kts 131°
2026-04-24 20:05 19.28297 -69.04020 27951 ft 498 kts 131°
2026-04-24 20:06 19.26230 -69.01085 28306 ft 497 kts 131°
2026-04-24 20:06 19.24157 -68.98145 28654 ft 497 kts 132°
2026-04-24 20:06 19.22094 -68.95224 29004 ft 496 kts 132°
2026-04-24 20:06 19.20019 -68.92296 29311 ft 496 kts 132°
2026-04-24 20:07 19.18646 -68.90361 29452 ft 498 kts 132°
2026-04-24 20:07 19.15861 -68.86420 29803 ft 501 kts 130°
2026-04-24 20:07 19.14025 -68.83260 30051 ft 509 kts 122°
2026-04-24 20:07 19.12597 -68.79812 30285 ft 514 kts 115°
2026-04-24 20:08 19.11329 -68.76324 30543 ft 514 kts 115°
2026-04-24 20:08 19.10039 -68.72791 30828 ft 514 kts 116°
2026-04-24 20:08 19.08745 -68.69260 31099 ft 513 kts 116°
2026-04-24 20:08 19.07451 -68.65743 31373 ft 513 kts 116°
2026-04-24 20:09 19.06150 -68.62222 31649 ft 513 kts 116°
2026-04-24 20:09 19.04850 -68.58714 31926 ft 512 kts 117°
2026-04-24 20:09 19.03553 -68.55215 32199 ft 512 kts 117°
2026-04-24 20:09 19.02257 -68.51708 32461 ft 512 kts 117°
2026-04-24 20:10 19.00965 -68.48198 32738 ft 511 kts 117°
2026-04-24 20:10 18.99676 -68.44697 33010 ft 511 kts 117°
2026-04-24 20:10 18.98388 -68.41205 33283 ft 511 kts 117°
2026-04-24 20:10 18.97113 -68.37755 33550 ft 510 kts 118°
2026-04-24 20:11 18.95819 -68.34265 33817 ft 510 kts 118°
2026-04-24 20:11 18.94525 -68.30782 34065 ft 509 kts 118°
2026-04-24 20:11 18.93234 -68.27301 34302 ft 508 kts 118°
2026-04-24 20:11 18.91944 -68.23828 34537 ft 508 kts 118°
2026-04-24 20:12 18.90651 -68.20356 34775 ft 507 kts 118°
2026-04-24 20:12 18.89361 -68.16891 34904 ft 508 kts 118°
2026-04-24 20:12 18.88069 -68.13416 34953 ft 508 kts 118°
2026-04-24 20:13 18.85480 -68.06466 34933 ft 508 kts 118°
2026-04-24 20:13 18.82897 -67.99526 34949 ft 508 kts 118°
2026-04-24 20:14 18.80325 -67.92631 34939 ft 508 kts 118°
2026-04-24 20:14 18.77733 -67.85705 34951 ft 508 kts 118°
2026-04-24 20:15 18.75135 -67.78773 34952 ft 508 kts 118°
2026-04-24 20:15 18.72525 -67.71829 34947 ft 508 kts 118°
2026-04-24 20:16 18.69925 -67.64902 34960 ft 508 kts 118°
2026-04-24 20:16 18.67317 -67.57968 34967 ft 508 kts 118°
2026-04-24 20:17 18.64706 -67.51025 34963 ft 509 kts 117°
2026-04-24 20:17 18.60797 -67.40665 34978 ft 509 kts 118°
2026-04-24 20:18 18.57770 -67.34001 34987 ft 501 kts 126°
2026-04-24 20:18 18.54375 -67.27566 34991 ft 501 kts 126°
2026-04-24 20:19 18.51226 -67.20995 34994 ft 509 kts 115°
2026-04-24 20:19 18.49748 -67.13632 34995 ft 521 kts 96°
2026-04-24 20:20 18.49772 -67.05968 34987 ft 522 kts 95°
2026-04-24 20:20 18.49411 -66.98370 34984 ft 522 kts 98°
2026-04-24 20:21 18.48930 -66.90718 34978 ft 523 kts 97°
2026-04-24 20:21 18.48533 -66.83063 34979 ft 522 kts 96°
2026-04-24 20:22 18.48223 -66.75418 34980 ft 522 kts 96°
2026-04-24 20:22 18.47926 -66.67766 34982 ft 522 kts 96°
2026-04-24 20:23 18.47604 -66.60162 34979 ft 522 kts 96°
2026-04-24 20:23 18.47253 -66.52519 34981 ft 521 kts 96°
2026-04-24 20:24 18.46883 -66.44907 34986 ft 520 kts 96°
2026-04-24 20:24 18.46505 -66.37292 34984 ft 520 kts 96°
2026-04-24 20:25 18.46134 -66.29697 34983 ft 519 kts 96°
2026-04-24 20:25 18.45770 -66.22104 34978 ft 518 kts 96°
2026-04-24 20:26 18.45398 -66.14538 34980 ft 516 kts 97°
2026-04-24 20:26 18.45025 -66.07009 34978 ft 515 kts 97°
2026-04-24 20:27 18.44604 -65.99485 34975 ft 512 kts 101°
2026-04-24 20:27 18.43263 -65.92179 34965 ft 507 kts 107°
2026-04-24 20:28 18.41788 -65.84960 34977 ft 507 kts 107°
2026-04-24 20:28 18.40301 -65.77698 34985 ft 507 kts 107°
2026-04-24 20:29 18.38820 -65.70448 34994 ft 506 kts 107°
2026-04-24 20:29 18.37337 -65.63177 35002 ft 506 kts 107°
2026-04-24 20:30 18.35852 -65.55930 35000 ft 506 kts 107°
2026-04-24 20:30 18.34355 -65.48688 35002 ft 506 kts 107°
2026-04-24 20:31 18.32857 -65.41457 35001 ft 506 kts 107°
2026-04-24 20:31 18.31379 -65.34275 35000 ft 506 kts 107°
2026-04-24 20:32 18.30097 -65.26988 34995 ft 510 kts 98°
2026-04-24 20:32 18.30545 -65.19488 34995 ft 517 kts 79°
2026-04-24 20:33 18.32628 -65.12219 34994 ft 519 kts 73°
2026-04-24 20:33 18.34567 -65.04921 34991 ft 516 kts 84°
2026-04-24 20:34 18.34745 -64.97485 34685 ft 506 kts 102°
2026-04-24 20:34 18.34201 -64.93833 34302 ft 504 kts 104°
2026-04-24 20:34 18.33618 -64.90175 33428 ft 510 kts 104°
2026-04-24 20:35 18.33012 -64.86489 32637 ft 512 kts 104°
2026-04-24 20:35 18.32397 -64.82790 31804 ft 515 kts 103°
2026-04-24 20:35 18.31776 -64.79065 30935 ft 519 kts 103°
2026-04-24 20:35 18.31154 -64.75306 29988 ft 524 kts 102°
2026-04-24 20:36 18.30532 -64.71507 28956 ft 527 kts 102°
2026-04-24 20:36 18.29912 -64.67690 27957 ft 529 kts 102°
2026-04-24 20:36 18.29293 -64.63866 26873 ft 531 kts 102°
2026-04-24 20:36 18.28671 -64.60035 25864 ft 527 kts 102°
2026-04-24 20:37 18.28061 -64.56300 24746 ft 524 kts 102°
2026-04-24 20:37 18.27443 -64.52539 24092 ft 519 kts 102°
2026-04-24 20:37 18.26819 -64.48769 23260 ft 516 kts 102°
2026-04-24 20:37 18.26203 -64.45058 22463 ft 511 kts 102°
2026-04-24 20:38 18.25604 -64.41434 21728 ft 505 kts 102°
2026-04-24 20:38 18.25008 -64.37817 20993 ft 498 kts 102°
2026-04-24 20:38 18.24419 -64.34260 20260 ft 492 kts 102°
2026-04-24 20:38 18.23828 -64.30714 19525 ft 487 kts 102°
2026-04-24 20:39 18.23251 -64.27225 18889 ft 480 kts 101°
2026-04-24 20:39 18.22684 -64.23798 18105 ft 472 kts 101°
2026-04-24 20:39 18.22126 -64.20438 17368 ft 460 kts 101°
2026-04-24 20:39 18.21578 -64.17152 16745 ft 452 kts 101°
2026-04-24 20:40 18.21037 -64.13919 16123 ft 445 kts 101°
2026-04-24 20:40 18.20504 -64.10737 15531 ft 439 kts 101°
2026-04-24 20:40 18.19977 -64.07594 14942 ft 434 kts 101°
2026-04-24 20:40 18.19462 -64.04521 14370 ft 429 kts 101°
2026-04-24 20:41 18.18944 -64.01437 13772 ft 426 kts 101°
2026-04-24 20:41 18.18429 -63.98371 13124 ft 423 kts 101°
2026-04-24 20:41 18.17921 -63.95350 12509 ft 418 kts 101°
2026-04-24 20:41 18.17418 -63.92354 11881 ft 414 kts 101°
2026-04-24 20:42 18.16922 -63.89387 11251 ft 410 kts 101°
2026-04-24 20:42 18.16438 -63.86485 11032 ft 394 kts 101°
2026-04-24 20:42 18.15975 -63.83719 10907 ft 372 kts 101°
2026-04-24 20:42 18.15540 -63.81124 10802 ft 349 kts 102°
2026-04-24 20:43 18.15129 -63.78684 10671 ft 329 kts 101°
2026-04-24 20:43 18.14743 -63.76385 10551 ft 311 kts 101°
2026-04-24 20:43 18.14372 -63.74186 10244 ft 301 kts 101°
2026-04-24 20:43 18.14006 -63.72033 9944 ft 298 kts 101°
2026-04-24 20:44 18.13643 -63.69908 9834 ft 294 kts 102°
2026-04-24 20:44 18.13283 -63.67795 9690 ft 293 kts 101°
2026-04-24 20:44 18.12812 -63.65747 9564 ft 292 kts 109°
2026-04-24 20:44 18.12176 -63.63718 9249 ft 291 kts 109°
2026-04-24 20:45 18.11544 -63.61709 8915 ft 289 kts 109°
2026-04-24 20:45 18.10916 -63.59710 8558 ft 287 kts 109°
2026-04-24 20:45 18.10294 -63.57728 8212 ft 285 kts 109°
2026-04-24 20:45 18.09674 -63.55752 7866 ft 284 kts 109°
2026-04-24 20:46 18.09056 -63.53783 7520 ft 283 kts 109°
2026-04-24 20:46 18.08443 -63.51820 7177 ft 281 kts 109°
2026-04-24 20:46 18.07833 -63.49874 6836 ft 280 kts 109°
2026-04-24 20:46 18.07224 -63.47934 6502 ft 279 kts 109°
2026-04-24 20:47 18.06625 -63.46028 6148 ft 277 kts 109°
2026-04-24 20:47 18.06012 -63.44085 5794 ft 276 kts 108°
2026-04-24 20:47 18.05414 -63.42184 5454 ft 274 kts 109°
2026-04-24 20:47 18.04827 -63.40313 5128 ft 272 kts 109°
2026-04-24 20:48 18.04237 -63.38439 4786 ft 270 kts 109°
2026-04-24 20:48 18.03647 -63.36569 4460 ft 269 kts 109°
2026-04-24 20:48 18.03067 -63.34717 4339 ft 263 kts 108°
2026-04-24 20:48 18.02508 -63.32933 3805 ft 251 kts 108°
2026-04-24 20:49 18.01971 -63.31230 3498 ft 239 kts 108°
2026-04-24 20:49 18.01575 -63.29605 3232 ft 224 kts 96°
2026-04-24 20:49 18.01630 -63.28011 2953 ft 216 kts 81°
2026-04-24 20:49 18.01864 -63.26462 2688 ft 214 kts 82°
2026-04-24 20:50 18.02083 -63.24959 2442 ft 197 kts 82°
2026-04-24 20:50 18.02277 -63.23624 2195 ft 175 kts 83°
2026-04-24 20:50 18.02454 -63.22405 1998 ft 165 kts 83°
2026-04-24 20:50 18.02624 -63.21235 1792 ft 159 kts 83°
2026-04-24 20:51 18.02789 -63.20084 1590 ft 159 kts 82°
2026-04-24 20:51 18.02949 -63.18948 1378 ft 156 kts 82°
2026-04-24 20:51 18.03108 -63.17820 1170 ft 155 kts 82°
2026-04-24 20:51 18.03267 -63.16705 967 ft 154 kts 83°
2026-04-24 20:52 18.03425 -63.15589 764 ft 153 kts 82°
2026-04-24 20:52 18.03574 -63.14532 636 ft 146 kts 82°
2026-04-24 20:52 18.03735 -63.13481 396 ft 146 kts 81°
2026-04-24 20:52 18.03886 -63.12443 168 ft 144 kts 83°
2026-04-24 20:53 18.04021 -63.11415 21 ft 131 kts 83°
2026-04-24 20:53 18.04110 -63.10779 21 ft 41 kts 81°
2026-04-24 20:53 18.04125 -63.10579 21 ft 18 kts 70°
2026-04-24 20:53 18.04147 -63.10616 21 ft 15 kts 262°
2026-04-24 20:54 18.04131 -63.10714 24 ft 26 kts 261°
2026-04-24 20:54 18.04104 -63.10888 21 ft 24 kts 262°
2026-04-24 20:54 18.04147 -63.11009 22 ft 8 kts 307°
2026-04-24 20:54 18.04163 -63.11054 21 ft 11 kts 280°
2026-04-24 20:55 18.04162 -63.11106 21 ft 0 kts 265°
2026-04-24 20:55 18.04161 -63.11116 21 ft 0 kts 264°
2026-04-24 20:55 18.04156 -63.11148 21 ft 9 kts 259°
2026-04-24 20:55 18.04141 -63.11242 21 ft 12 kts 263°
2026-04-24 20:56 18.04186 -63.11303 21 ft 12 kts 345°
2026-04-24 20:56 18.04230 -63.11310 21 ft 6 kts 359°
2026-04-24 20:56 18.04273 -63.11294 21 ft 7 kts 26°
2026-04-24 20:56 18.04324 -63.11291 21 ft 8 kts 353°
2026-04-24 20:57 18.04334 -63.11293 21 ft 2 kts 351°
2026-04-24 20:57 18.04338 -63.11293 21 ft 0 kts 351°